Torna al catalogo

STARLINK-35037

AttivoComunicazioniVLEO
NORAD 65483·PAYLOAD·🇺🇸 United States

Lanciato Sep 3, 2025 da Cape Canaveral Space Force Station

Loading…

Prossimi Passaggi (prossime 24 ore)

TLE

AggiornatoSource: CelesTrak SupGP

Epoca: Sep 14, 2026, 22:44 UTC

1 65483C 25195AB  26257.94770833  .00019595  00000+0  57904-3 0  2574
2 65483  53.1566  95.6999 0001269  86.4908  51.1094 15.34374799    17

Traccia STARLINK-35037 in tempo reale con AllMySat

Download on the App Store